Weather History for Cut Bank, MT

Change the Weather History Date:

Saturday, May 11, 2013

  Actual Average Record
Temperature  
Mean Temperature 58 °F 48 °F  
Max Temperature 82 °F 61 °F 86 °F (1993)
Min Temperature 34 °F 36 °F 20 °F (2012)
Degree Days  
Heating Degree Days 7 17  
Month to date heating degree days 169 199  
Since 1 July heating degree days 7800 8019  
Cooling Degree Days 0 0  
Month to date cooling degree days 0 0  
Year to date cooling degree days 0 0  
Growing Degree Days 8 (Base 50)    
Moisture  
Dew Point 31 °F    
Average Humidity 40    
Maximum Humidity 64    
Minimum Humidity 16    
Precipitation  
Precipitation 0.00 in 0.06 in 0.92 in (1991)
Month to date precipitation 0.03 0.47  
Year to date precipitation 2.05 2.16  
Snow  
Snow 0.00 in - - ()
Snow Depth 0.00 in    
Sea Level Pressure  
Sea Level Pressure 30.14 in    
Wind  
Wind Speed 12 mph (SW)    
Max Wind Speed 30 mph    
Max Gust Speed 39 mph    
Visibility 10 miles    
Events      
T = Trace of Precipitation, MM = Missing Value Source: NWS Daily Summary

Daily Weather History Graph

Daily Weather History Graph

Search for Another Location

Airport:

Trip Planner

Search our weather history database for the weather conditions in past years. The results will help you decide how hot, cold, wet, or windy it might be!

Date:

Astronomy

May. 11, 2013 Rise Set
Actual Time 5:53 AM MDT 8:58 PM MDT
Civil Twilight 5:16 AM MDT 9:36 PM MDT
Nautical Twilight 4:28 AM MDT 10:24 PM MDT
Astronomical Twilight 3:28 AM MDT 11:25 PM MDT
Moon 7:01 AM MDT (5/11) 10:45 PM MDT (5/11)
Length of Visible Light 16h 19m
Length of Day
15h 05m
Waxing Crescent, 3% of the Moon is Illuminated
May 11
Waxing Crescent
May 17
First Quarter
May 24
Full
May 31
Last Quarter
Jun 8
New

Hourly Weather History & Observations

Time (MDT) Temp. Windchill Dew Point Humidity Pressure Visibility Wind Dir Wind Speed Gust Speed Precip Events Conditions
12:56 AM 43.0 °F 38.8 °F 25.0 °F 49% 30.36 in 10.0 mi SE 6.9 mph - N/A   Clear
1:56 AM 42.1 °F 38.4 °F 26.1 °F 53% 30.34 in 10.0 mi SSE 5.8 mph - N/A   Partly Cloudy
2:56 AM 39.9 °F 35.8 °F 25.0 °F 55% 30.32 in 10.0 mi SE 5.8 mph - N/A   Clear
3:56 AM 37.9 °F 31.5 °F 25.0 °F 60% 30.31 in 10.0 mi East 9.2 mph - N/A   Clear
4:56 AM 37.0 °F 32.4 °F 24.1 °F 59% 30.29 in 10.0 mi East 5.8 mph - N/A   Clear
5:56 AM 36.0 °F 32.1 °F 25.0 °F 64% 30.31 in 10.0 mi WSW 4.6 mph - N/A   Clear
6:56 AM 41.0 °F 35.2 °F 25.0 °F 53% 30.25 in 10.0 mi East 9.2 mph - N/A   Partly Cloudy
7:56 AM 45.0 °F 41.2 °F 24.1 °F 44% 30.23 in 10.0 mi ESE 6.9 mph - N/A   Clear
8:56 AM 46.9 °F - 25.0 °F 42% 30.22 in 10.0 mi SE 15.0 mph - N/A   Partly Cloudy
9:56 AM 55.0 °F - 28.0 °F 35% 30.19 in 10.0 mi SSE 11.5 mph - N/A   Clear
10:56 AM 57.0 °F - 28.9 °F 34% 30.17 in 10.0 mi SE 10.4 mph - N/A   Partly Cloudy
11:56 AM 64.0 °F - 32.0 °F 30% 30.13 in 10.0 mi South 11.5 mph - N/A   Partly Cloudy
12:56 PM 71.1 °F - 35.1 °F 27% 30.09 in 10.0 mi South 8.1 mph - N/A   Clear
1:56 PM 75.9 °F - 35.1 °F 23% 30.04 in 10.0 mi West 15.0 mph 19.6 mph N/A   Clear
2:56 PM 81.0 °F - 30.0 °F 16% 30.01 in 10.0 mi West 29.9 mph 35.7 mph N/A   Clear
3:56 PM 81.0 °F - 30.0 °F 16% 30.01 in 10.0 mi West 24.2 mph 36.8 mph N/A   Clear
4:56 PM 80.1 °F - 33.1 °F 18% 30.01 in 10.0 mi WNW 23.0 mph 31.1 mph N/A   Clear
5:56 PM 79.0 °F - 34.0 °F 20% 30.01 in 10.0 mi West 16.1 mph 26.5 mph N/A   Clear
6:56 PM 77.0 °F - 35.1 °F 22% 29.99 in 10.0 mi WNW 19.6 mph - N/A   Clear
7:56 PM 73.0 °F - 37.0 °F 27% 29.99 in 10.0 mi WNW 11.5 mph - N/A   Clear
8:56 PM 66.2 °F - 37.4 °F 35% 30.03 in 10.0 mi West 9.2 mph - N/A   Clear
9:56 PM 60.1 °F - 37.9 °F 44% 30.00 in 10.0 mi West 9.2 mph - N/A   Clear
10:56 PM 57.9 °F - 37.9 °F 47% 30.00 in 10.0 mi West 10.4 mph - N/A   Clear
11:56 PM 55.9 °F - 37.0 °F 49% 30.00 in 10.0 mi West 3.5 mph - N/A   Clear